Regional Weather Roundup
Issued by NWS

Home | Current Version | Previous Version | Graphics & Text | Print | Product List | Glossary On
Versions: 1 2 3 4 5 6 7 8 9 10 11 12 13 14 15 16 17 18 19 20 21 22 23 24 25 26 27 28 29 30 31 32 33 34 35 36 37 38 39 40 41 42 43 44 45 46 47 48 49 50
000
ASUS43 KDMX 011607
RWRIA

WEATHER ROUNDUP FOR IOWA
NATIONAL WEATHER SERVICE DES MOINES IA
1100 AM CDT MON SEP 01 2014

NOTE: "FAIR" INDICATES FEW OR NO CLOUDS BELOW 12,000 FEET WITH NO
SIGNIFICANT WEATHER AND/OR OBSTRUCTIONS TO VISIBILITY.

* - THESE STATIONS ARE NOT NWS STATIONS...THUS NOT UNDER NWS
QUALITY CONTROL.  THEY ALSO DO NOT REPORT WEATHER SUCH
AS PRECIPITATION OR FOG.

IAZ001>003-012>014-020>022-031>034-043>046-011700-
   NORTHWEST IOWA

CITY           SKY/WX    TMP DP  RH WIND       PRES   REMARKS
CARROLL *      PTSUNNY   70  64  83 W13       29.82R
CHEROKEE *     PTSUNNY   70  64  83 NW9       29.82R
DENISON *      PTSUNNY   70  64  83 SW9       29.82R
LE MARS *      MOSUNNY   70  63  78 VRB5      29.84R
ORANGE CITY *  PTSUNNY   72  63  73 NW6       29.84R
SHELDON *      MOSUNNY   72  64  78 W6        29.82R
SIOUX CITY     CLOUDY    68  63  84 NW7       29.84R
SPENCER        MOSUNNY   71  61  70 W9        29.81R
STORM LAKE *   CLOUDY    68  68 100 W9        29.82R
$$

IAZ055>058-069>071-079>083-090>094-011700-
   SOUTHWEST IOWA

CITY           SKY/WX    TMP DP  RH WIND       PRES   REMARKS
ATLANTIC *     MOSUNNY   73  64  73 W13       29.83R
AUDUBON *      MOSUNNY   75  68  78 W10       29.84R
CLARINDA *     MOSUNNY   73  66  78 SW13      29.87R
COUNCIL BLFS * MOSUNNY   72  66  83 NW8       29.85R
CRESTON *      PTSUNNY   72  64  78 W15G21    29.85R
HARLAN  *      MOSUNNY   70  64  83 W13       29.88R
LAMONI         PTSUNNY   72  65  78 W17       29.85S
RED OAK *      PTSUNNY   73  64  73 VRB7G13   29.85R
SHENANDOAH *   MOSUNNY   72  66  83 W8        29.87R
$$

IAZ047>049-059>061-072>074-084-011700-
   CENTRAL IOWA

CITY           SKY/WX    TMP DP  RH WIND       PRES   REMARKS
AMES           CLOUDY    73  66  78 SW15      29.79R
ANKENY *       PTSUNNY   75  66  73 SW13G22   29.79R
CHARITON *     PTSUNNY   73  66  78 W16G25    29.82S
DES MOINES     PTSUNNY   75  65  70 W16       29.79R
GRINNELL*      CLOUDY    72  66  83 SW15G21   29.80R
KNOXVILLE *    CLOUDY    73  66  78 W18       29.79S
MARSHALLTOWN   PTSUNNY   73  67  81 W14       29.77R
PELLA *        CLOUDY    73  66  78 W12       29.81S
PERRY *        PTSUNNY   73  66  78 W10       29.80R
$$

IAZ004>006-015-016-023>025-035-036-011700-
   NORTH CENTRAL IOWA

CITY           SKY/WX    TMP DP  RH WIND       PRES   REMARKS
ALGONA *       PTSUNNY   72  64  78 NW9G16    29.78R
CLARION *      CLOUDY    70  66  88 W7        29.78R
ESTHERVILLE    PTSUNNY   70  62  76 NW10      29.79R
FORT DODGE *   CLOUDY    72  64  78 W6        29.79R
MASON CITY     PTSUNNY   71  65  81 W12       29.77R
FOREST CITY *  CLOUDY    70  68  94 W6        29.77R
IOWA FALLS *   CLOUDY    70  66  88 SW10G17   29.79R
$$

IAZ007>011-017>019-026>030-037>042-050>054-066-011700-
   NORTHEAST IOWA

CITY           SKY/WX    TMP DP  RH WIND       PRES   REMARKS
CEDAR RAPIDS   PTSUNNY   73  67  81 W14G21    29.77R
CHARLES CITY * CLOUDY    70  66  88 W10       29.75R
CLINTON *      MOSUNNY   75  64  69 SW13      29.80S
DECORAH *      CLOUDY    70  66  88 VRB7G14   29.72R
DUBUQUE        CLOUDY    71  65  81 W20       29.77R
MONTICELLO *   CLOUDY    73  66  78 W14G21    29.77R
OELWEIN *      CLOUDY    72  68  88 W15       29.76R
WATERLOO       CLOUDY    73  66  78 W14       29.75R
$$

IAZ064-065-067-068-078-011700-
   EAST CENTRAL IOWA

CITY           SKY/WX    TMP DP  RH WIND       PRES   REMARKS
DAVENPORT      MOSUNNY   75  64  68 W16G24    29.79R
IOWA CITY      SUNNY     76  67  73 W15       29.79R
MT. PLEASANT * MOSUNNY   77  63  61 W14       29.80S
MUSCATINE *    SUNNY     77  64  65 W16G25    29.79S
QUAD CITIES    MOSUNNY   76  65  68 W14       29.78R
$$

IAZ062-063-075>077-085>089-095>099-011700-
   SOUTHEAST IOWA

CITY           SKY/WX    TMP DP  RH WIND       PRES   REMARKS
BURLINGTON     LGT RAIN  74  66  76 W9        29.81R
FAIRFIELD *    MOSUNNY   73  64  73 W13G21    29.81S
FORT MADISON * MOSUNNY   73  66  78 W12       29.83R
KEOKUK *       CLOUDY    73  66  78 W14       29.83R
OSKALOOSA *    PTSUNNY   73  66  78 W17G25    29.81R
CENTERVILLE *  PTSUNNY   73  66  78 W14G21    29.84F
OTTUMWA        PTSUNNY   73  65  75 W17G28    29.80S
WASHINGTON *   SUNNY     75  66  73 W18G24    29.80S
$$

ABBREVIATIONS USED IN REMARKS
   TC - TEMPERATURES IN CELSIUS
  WCI - WIND CHILL INDEX
   HX - HEAT INDEX
  VSB - VISIBILITY
$$




USA.gov is the U.S. government's official web portal to all federal, state and local government web resources and services.